Weather in Accol

Kazakhstan     51°59′45″N   70°57′10″E
temp.,
°C
wind,
m/s
gust,
m/s
humid.,
%
clouds,
%
prec.,
mm/h
press.,
hPa
HPBL,
m
13 may, thu
thu1300:00+16nw51245100 0.0 1022307
03:00+13n496586 0.0 1022227
06:00+10n4965100 0.0 1024244
09:00+13n694886 0.0 1024875
12:00+17n794065 0.0 10241282
15:00+20n794013 0.0 10231750
18:00+21nw71139100 0.0 10222416
21:00+18wnw51151100 0.0 1021328
14 may, fri
fri1400:00+16ene256234 0.0 1022121
03:00+14nne227121 0.0 102324
06:00+11n49925 0.0 1025228
09:00+15ne56705 0.0 1026763
12:00+18ne56425 0.0 10271431
15:00+21nne45315 0.0 10271682
18:00+21ne34285 0.0 10271709
21:00+17e22395 0.0 102811
15 may, sat
sat1500:00+15s22461 0.0 102813
03:00+13sw34545 0.0 102758
06:00+12wsw475810 0.0 1028100
09:00+18wsw57431 0.0 1027409
12:00+23w55335 0.0 10261293
15:00+26w44255 0.0 10242176
18:00+26w35264 0.0 10222422
21:00+21sw443622 0.0 102143
16 may, sun
sun1600:00+17n1262100 2.1 102216
03:00+16w466876 0.9 102187
06:00+15w497459 1.9 1021149
09:00+21wnw46515 0.0 1021324
12:00+26wnw34365 0.0 10201205
15:00+28nw452878 0.0 10192907
18:00+26nw343380 0.0 1018488
21:00+21ssw475181 0.1 1019135
17 may, mon
mon1700:00+18w356094 0.1 102075
03:00+18wnw365964 0.0 1019106
06:00+18nw226011 0.0 101913
09:00+24nne12411 0.0 1019282
12:00+27ssw11319 0.0 10182290
15:00+29sw22264 0.0 10172888
18:00+28ssw22263 0.0 10152452
21:00+22nw611489 0.0 1015280